Weather History for Three Rivers, MI

Change the Weather History Date:

Sunday, February 1, 2009

  Actual Average Record
Temperature  
Mean Temperature 36 °F -  
Max Temperature 39 °F 34 °F 63 °F (1989)
Min Temperature 32 °F 19 °F -3 °F (1971)
Degree Days  
Heating Degree Days 30    
Moisture  
Dew Point 23 °F    
Average Humidity 64    
Maximum Humidity 87    
Minimum Humidity 45    
Precipitation  
Precipitation 0.00 in - - ()
Sea Level Pressure  
Sea Level Pressure 29.82 in    
Wind  
Wind Speed 11 mph (West)    
Max Wind Speed 17 mph    
Max Gust Speed 23 mph    
Visibility 10 miles    
Events      
Averages and records for this station are not official NWS values.
T = Trace of Precipitation, MM = Missing Value Source: NWS Daily Summary

Daily Weather History Graph

Daily Weather History Graph

Search for Another Location

Airport:

Trip Planner

Search our weather history database for the weather conditions in past years. The results will help you decide how hot, cold, wet, or windy it might be!

Date:

Astronomy

Feb. 01, 2009 Rise Set
Actual Time 7:54 AM EST 5:57 PM EST
Civil Twilight 7:25 AM EST 6:27 PM EST
Nautical Twilight 6:51 AM EST 7:00 PM EST
Astronomical Twilight 6:19 AM EST 7:33 PM EST
Moon 10:29 AM EST (2/1) No Moon Set
Length of Visible Light 11h 01m
Length of Day
10h 02m
Waxing Crescent, 36% of the Moon is Illuminated
Feb 1
Waxing Crescent
Feb 2
First Quarter
Feb 9
Full
Feb 16
Last Quarter
Feb 24
New

Hourly Weather History & Observations

Time (EST) Temp. Windchill Dew Point Humidity Pressure Visibility Wind Dir Wind Speed Gust Speed Precip Events Conditions
12:16 AM 32.0 °F 20.8 °F 28.4 °F 87% 29.63 in 10.0 mi SSW 17.3 mph 23.0 mph N/A   Clear
12:37 AM 32.0 °F 21.6 °F 28.4 °F 87% 29.63 in 10.0 mi SW 15.0 mph 19.6 mph N/A   Clear
1:17 AM 33.8 °F 24.8 °F 28.4 °F 81% 29.62 in 10.0 mi SW 12.7 mph 19.6 mph N/A   Clear
1:55 AM 35.6 °F 28.6 °F 30.2 °F 81% 29.62 in 10.0 mi SW 9.2 mph 16.1 mph N/A   Clear
2:17 AM 37.4 °F 29.3 °F 30.2 °F 75% 29.64 in 10.0 mi WSW 12.7 mph 17.3 mph N/A   Clear
2:37 AM 37.4 °F 29.8 °F 30.2 °F 75% 29.64 in 10.0 mi WSW 11.5 mph 20.7 mph N/A   Clear
2:55 AM 37.4 °F 30.3 °F 30.2 °F 75% 29.65 in 10.0 mi WSW 10.4 mph 20.7 mph N/A   Clear
3:37 AM 37.4 °F 30.3 °F 30.2 °F 75% 29.67 in 10.0 mi West 10.4 mph 17.3 mph N/A   Clear
3:55 AM 37.4 °F 30.3 °F 30.2 °F 75% 29.67 in 10.0 mi WSW 10.4 mph 19.6 mph N/A   Clear
4:17 AM 35.6 °F 28.0 °F 30.2 °F 81% 29.67 in 10.0 mi WSW 10.4 mph 17.3 mph N/A   Clear
5:17 AM 35.6 °F 29.9 °F 30.2 °F 81% 29.71 in 10.0 mi West 6.9 mph - N/A   Clear
5:37 AM 35.6 °F 29.9 °F 30.2 °F 81% 29.72 in 10.0 mi WSW 6.9 mph - N/A   Clear
5:55 AM 33.8 °F 26.4 °F 28.4 °F 81% 29.73 in 10.0 mi West 9.2 mph - N/A   Clear
6:17 AM 32.0 °F 24.2 °F 28.4 °F 87% 29.73 in 10.0 mi West 9.2 mph - N/A   Clear
6:37 AM 32.0 °F 23.0 °F 26.6 °F 80% 29.74 in 10.0 mi West 11.5 mph - N/A   Clear
6:55 AM 32.0 °F 23.6 °F 26.6 °F 80% 29.75 in 10.0 mi West 10.4 mph - N/A   Clear
7:17 AM 33.8 °F 25.8 °F 24.8 °F 70% 29.76 in 10.0 mi West 10.4 mph - N/A   Clear
7:37 AM 32.0 °F 23.6 °F 24.8 °F 75% 29.77 in 10.0 mi West 10.4 mph - N/A   Clear
7:55 AM 32.0 °F 24.2 °F 24.8 °F 75% 29.78 in 10.0 mi West 9.2 mph - N/A   Clear
8:17 AM 32.0 °F 24.2 °F 23.0 °F 69% 29.80 in 10.0 mi West 9.2 mph - N/A   Clear
8:36 AM 32.0 °F 23.0 °F 24.8 °F 75% 29.81 in 10.0 mi WNW 11.5 mph - N/A   Clear
8:55 AM 32.0 °F 23.0 °F 24.8 °F 75% 29.82 in 10.0 mi West 11.5 mph - N/A   Clear
9:16 AM 32.0 °F 23.0 °F 26.6 °F 80% 29.83 in 10.0 mi WNW 11.5 mph - N/A   Clear
9:37 AM 33.8 °F 25.8 °F 26.6 °F 75% 29.84 in 10.0 mi WNW 10.4 mph - N/A   Clear
10:16 AM 33.8 °F 25.8 °F 26.6 °F 75% 29.85 in 10.0 mi WNW 10.4 mph 16.1 mph N/A   Clear
10:55 AM 35.6 °F 29.2 °F 26.6 °F 70% 29.86 in 10.0 mi WNW 8.1 mph - N/A   Clear
11:17 AM 35.6 °F 28.0 °F 24.8 °F 65% 29.86 in 10.0 mi WNW 10.4 mph - N/A   Clear
11:37 AM 35.6 °F 28.6 °F 24.8 °F 65% 29.86 in 10.0 mi WNW 9.2 mph - N/A   Clear
12:38 PM 39.2 °F 33.6 °F 23.0 °F 52% 29.86 in 10.0 mi WNW 8.1 mph - N/A   Mostly Cloudy
12:55 PM 39.2 °F 35.0 °F 21.2 °F 49% 29.86 in 10.0 mi West 5.8 mph - N/A   Overcast
1:17 PM 39.2 °F 32.5 °F 21.2 °F 49% 29.86 in 10.0 mi West 10.4 mph - N/A   Mostly Cloudy
1:37 PM 37.4 °F 30.3 °F 23.0 °F 56% 29.86 in 10.0 mi SW 10.4 mph - N/A   Mostly Cloudy
2:17 PM 39.2 °F 33.6 °F 21.2 °F 49% 29.87 in 10.0 mi WSW 8.1 mph - N/A   Scattered Clouds
2:36 PM 39.2 °F 32.0 °F 21.2 °F 49% 29.87 in 10.0 mi West 11.5 mph - N/A   Mostly Cloudy
2:55 PM 39.2 °F 32.0 °F 19.4 °F 45% 29.87 in 10.0 mi West 11.5 mph 19.6 mph N/A   Scattered Clouds
3:17 PM 39.2 °F 33.0 °F 19.4 °F 45% 29.87 in 10.0 mi WSW 9.2 mph 16.1 mph N/A   Scattered Clouds
3:37 PM 37.4 °F 29.8 °F 19.4 °F 48% 29.87 in 10.0 mi West 11.5 mph - N/A   Mostly Cloudy
3:55 PM 37.4 °F 31.4 °F 17.6 °F 45% 29.88 in 10.0 mi West 8.1 mph 17.3 mph N/A   Mostly Cloudy
4:17 PM 37.4 °F 30.8 °F 19.4 °F 48% 29.89 in 10.0 mi West 9.2 mph - N/A   Overcast
4:55 PM 35.6 °F 27.5 °F 17.6 °F 48% 29.90 in 10.0 mi West 11.5 mph - N/A   Overcast
5:17 PM 35.6 °F 29.9 °F 17.6 °F 48% 29.90 in 10.0 mi West 6.9 mph - N/A   Scattered Clouds
5:37 PM 35.6 °F 28.6 °F 17.6 °F 48% 29.91 in 10.0 mi West 9.2 mph - N/A   Scattered Clouds
5:55 PM 35.6 °F 29.2 °F 17.6 °F 48% 29.92 in 10.0 mi West 8.1 mph - N/A   Mostly Cloudy
6:17 PM 33.8 °F 25.8 °F 17.6 °F 52% 29.92 in 10.0 mi West 10.4 mph - N/A   Mostly Cloudy
6:37 PM 33.8 °F 27.0 °F 17.6 °F 52% 29.93 in 10.0 mi West 8.1 mph - N/A   Scattered Clouds
6:55 PM 33.8 °F 27.7 °F 17.6 °F 52% 29.93 in 10.0 mi West 6.9 mph - N/A   Clear
7:17 PM 33.8 °F 28.6 °F 17.6 °F 52% 29.94 in 10.0 mi WSW 5.8 mph - N/A   Clear
7:37 PM 33.8 °F 27.7 °F 17.6 °F 52% 29.94 in 10.0 mi West 6.9 mph - N/A   Clear
7:55 PM 33.8 °F 26.4 °F 17.6 °F 52% 29.94 in 10.0 mi West 9.2 mph - N/A   Clear
8:17 PM 32.0 °F 26.4 °F 17.6 °F 55% 29.94 in 10.0 mi West 5.8 mph - N/A   Clear
8:37 PM 32.0 °F 25.6 °F 19.4 °F 60% 29.95 in 10.0 mi West 6.9 mph - N/A   Clear
8:55 PM 32.0 °F 25.6 °F 19.4 °F 60% 29.95 in 10.0 mi West 6.9 mph - N/A   Clear
9:17 PM 32.0 °F 25.6 °F 19.4 °F 60% 29.95 in 10.0 mi West 6.9 mph - N/A   Clear
9:36 PM 32.0 °F 26.4 °F 19.4 °F 60% 29.95 in 10.0 mi West 5.8 mph - N/A   Clear
9:55 PM 32.0 °F 26.4 °F 19.4 °F 60% 29.96 in 10.0 mi West 5.8 mph - N/A   Clear
10:17 PM 30.2 °F 25.4 °F 19.4 °F 64% 29.97 in 10.0 mi WSW 4.6 mph - N/A   Clear
10:37 PM 30.2 °F 25.4 °F 19.4 °F 64% 29.97 in 10.0 mi West 4.6 mph - N/A   Clear
10:55 PM 30.2 °F 24.3 °F 19.4 °F 64% 29.97 in 10.0 mi West 5.8 mph - N/A   Clear
11:17 PM 30.2 °F 23.4 °F 19.4 °F 64% 29.97 in 10.0 mi West 6.9 mph - N/A   Clear
11:37 PM 28.4 °F 20.4 °F 19.4 °F 69% 29.97 in 10.0 mi West 8.1 mph - N/A   Clear